SBMKSBCF

Guest
Details From SBMK - MARIO RIBEIRO
To SBCF - Tancredo Neves
Flight Number -
Tags generated
Created
Modified
Stats Distance 177 nm / 327 km
Max Altitude 8,600 ft / 2,621 m
Waypoints 4
Social Downloads 0
Likes 0
Share VATSIM

Download

Looking for another format? Having issues loading an existing format? Contact us
Advertisement - Login to hide

Notes

Basic altitude profile: - Ascent Rate: 2500ft/min - Ascent Speed: 250kts - Cruise Altitude: 28000ft - Cruise Speed: 420kts - Descent Rate: 1500ft/min - Descent Speed: 250kts Options: - Use NATs: yes - Use PACOTS: yes - Use low airways: yes - Use high airways: no

Route

SBMK MCL W8 ELBAM SBCF

ID Type Via Altitude Latitude Longitude Leg Dist Tot Dist Heading (true) Name
O SBMK APT - 0 ft / 0 m -16.70692˚ -43.81890˚ - 0 nm - MARIO RIBEIRO
MCL NDB - 0 ft / 0 m -16.70350˚ -43.81917˚ 0 nm 0 nm 356° / 356° MONTES CLAROS NDB
ELBAM FIX W8 (AWY-LO) 8,600 ft / 2,621 m -18.96517˚ -44.00067˚ 136 nm 136 nm 184° / 184° -
O SBCF APT - 0 ft / 0 m -19.63376˚ -43.96885˚ 40 nm 176 nm 177° / 177° Tancredo Neves

Altitude Profile

Advertisement - Login to hide

Weather


0- 5 10 15 20 25 30 35+ Temperature / ° C

Clouds and Precipitation
Forecast for 2017-12-18 06:00 UTC. Updated 19 minutes ago

Ground ~20,000 ft ~40,000 ft Winds

SBMK

Details ICAO SBMK (MOC)
Name MARIO RIBEIRO
Region Brazil
Timezone America/Sao_Paulo (UTC-2.0)
Stats Elevation 2,191 ft / 668 m (AMSL)
Location -16.706925° -43.818900°
Runways 1
Magnetic Variation 22.899° W

METAR

SBMK 180300Z 00000KT CAVOK 21/17 Q1018

Decode

TAF

Not found

Departure Runways

ID Width Length Bearing (true) Bearing (mag) Surface Threshold Offset Overrun Length
12 148 ft / 45 m 6,883 ft / 2,098 m 96.90° 119.80° Asphalt 0 ft / 0 m 0 ft / 0 m
30 148 ft / 45 m 6,883 ft / 2,098 m 276.90° 299.80° Asphalt 0 ft / 0 m 0 ft / 0 m

SBCF

Details ICAO SBCF (CNF)
Name Tancredo Neves
Region Brazil
Timezone America/Sao_Paulo (UTC-2.0)
Stats Elevation 2,715 ft / 828 m (AMSL)
Location -19.633758° -43.968854°
Runways 1
Magnetic Variation 22.805° W

METAR

SBCF 180300Z 12003KT CAVOK 20/17 Q1020

Decode

TAF

TAF SBCF 172000Z 1800/1824 07007KT 8000 NSC TN18/1805Z TX26/1817Z PROB30 1800/1804 4000 TSRA SCT010 FEW025CB PROB40 TEMPO 1805/1811 0500 FG BKN002 BECMG 1821/1823 20005KT RMK PDB

Decode

Destination Runways

ID Width Length Bearing (true) Bearing (mag) Surface Threshold Offset Overrun Length
16 148 ft / 45 m 9,872 ft / 3,009 m 138.97° 161.77° Asphalt 0 ft / 0 m 203 ft / 62 m
34 148 ft / 45 m 9,872 ft / 3,009 m 318.96° 341.76° Asphalt 0 ft / 0 m 203 ft / 62 m

Approach Navaids

Runway Type Ident Frequency Range Bearing (true) Bearing (mag) Slope Elevation
16 Localiser ICF 109.70 MHz 18 nm / 33 km 138.90° 161.71° - 2,716 ft / 828 m (AMSL)
16 Glidescope ICF 109.70 MHz 10 nm / 19 km 138.96° 161.77° 3.00° 2,716 ft / 828 m (AMSL)

Popular Alternatives